Theta_e
284 284 284 284 284 285 285 285 284 285 286 286 287 287 287 288 288 289 289 289 290 291 292 292 293 294 295
284 284 284 285 285 285 284 284 283 283 284 285 286 286 287 287 287 288 288 288 289 289 290 290 292 292 293
284 284 285 285 284 283 282 282 283 283 283 284 285 285 286 287 287 288 288 288 288 288 289 289 290 291 292
285 285 285 284 282 282 282 283 283 283 283 283 284 284 285 285 285 285 286 286 286 287 287 288 289 290 290
285 284 283 282 282 283 282 283 283 283 283 283 283 283 283 283 283 284 284 284 285 286 287 288 288 288 289
283 282 282 283 283 283 283 282 283 283 283 282 283 283 283 283 284 283 284 285 286 287 287 287 288 289 289
282 282 283 283 283 282 282 282 282 283 282 282 283 283 284 283 284 284 284 285 286 286 287 287 288 288 288
283 283 284 283 282 282 282 282 282 283 282 281 283 283 283 284 285 285 284 285 286 286 286 287 288 288 288
283 282 282 282 282 282 282 281 281 282 285 281 283 282 283 284 285 285 285 285 286 286 287 288 288 288 288
282 283 283 284 283 283 282 280 280 280 285 281 281 282 283 284 285 286 287 289 288 286 286 287 288 288 287
282 282 283 283 284 284 284 282 282 281 286 282 282 283 282 283 285 288 288 289 288 289 290 289 287 287 288
281 282 282 283 284 284 285 285 285 284 286 285 283 284 284 284 284 290 289 289 289 291 291 290 290 289 287
280 283 283 284 285 285 285 285 286 286 286 286 285 285 285 285 286 289 288 289 291 291 291 291 291 289 288
282 283 284 285 285 285 284 285 285 286 287 286 287 287 288 290 289 289 289 288 291 292 293 293 291 289 288
283 283 284 284 285 285 284 285 285 285 287 287 288 289 290 290 289 289 289 290 292 292 293 293 293 290 290
284 284 284 284 284 285 285 285 285 286 286 286 288 289 290 290 289 290 289 290 292 292 292 293 294 294 290
284 284 283 284 284 285 285 285 286 286 286 286 288 287 286 287 290 290 290 290 291 292 292 293 295 295 293
Wind_Speed
48 53 50 47 46 44 40 38 42 46 42 42 41 42 41 42 43 44 44 43 42 41 41 42 44 45 44
47 50 48 50 49 41 44 45 43 41 38 39 41 41 42 41 42 43 42 42 41 41 42 42 42 43 45
46 44 49 42 42 46 47 43 42 40 40 39 37 38 38 39 40 41 42 43 44 44 44 43 43 43 42
42 40 35 49 45 44 45 46 43 45 46 38 39 39 40 40 40 39 39 39 39 40 40 40 42 42 43
33 46 44 43 45 46 44 47 43 45 41 36 44 48 47 43 40 38 37 36 36 37 38 39 38 40 43
42 41 43 45 47 43 42 47 49 39 36 48 45 49 46 42 40 36 37 38 39 40 40 40 40 40 40
37 38 44 43 43 50 45 42 44 49 47 49 48 49 45 44 41 38 38 38 39 40 40 40 40 40 40
33 36 36 42 38 39 41 44 43 45 38 43 47 48 48 47 41 29 30 33 34 35 37 38 38 39 39
31 35 37 31 28 32 37 40 42 45 43 35 39 50 48 44 35 31 34 33 34 34 35 37 38 37 38
40 34 29 28 29 29 34 37 39 42 43 39 42 39 36 36 39 47 44 37 35 33 34 35 35 36 41
32 34 34 33 33 32 31 32 37 38 38 34 39 41 32 43 51 46 41 41 38 33 27 25 31 38 41
34 36 36 36 34 34 32 31 31 35 34 30 36 37 41 46 45 45 46 41 36 27 32 31 27 25 34
35 35 35 35 35 36 33 32 34 33 32 31 31 35 37 40 40 42 45 46 22 38 36 31 26 20 25
34 33 34 34 36 36 37 37 40 38 35 34 33 35 34 31 30 38 43 34 39 34 23 19 10 10 17
33 34 34 35 36 35 35 36 37 38 42 38 33 31 31 24 27 37 39 37 30 29 18 16 11 4 11
33 34 35 36 36 35 33 34 35 35 39 38 37 39 39 30 23 36 37 39 29 25 24 19 16 5 4
36 34 35 34 34 33 35 34 33 34 36 33 34 32 33 30 27 32 42 43 32 26 28 23 22 9 6
Wind_Direction
315 315 317 319 320 316 312 311 308 302 298 295 292 290 289 288 285 283 282 279 276 273 270 266 262 260 258
307 314 316 319 314 312 313 310 307 308 300 295 295 293 290 288 286 284 281 278 275 272 270 268 265 260 259
301 308 312 307 312 315 313 312 314 309 302 301 298 293 292 290 288 285 282 278 276 272 271 268 264 260 258
301 300 312 313 312 314 315 316 311 313 306 302 298 297 294 292 289 285 281 277 274 272 268 265 263 261 259
312 313 312 315 317 319 310 316 309 309 305 303 305 304 306 307 299 291 284 280 276 272 268 265 263 259 255
312 308 311 317 318 313 312 310 311 317 309 305 311 311 312 313 307 292 287 282 277 272 269 265 262 260 257
309 312 313 318 315 312 309 307 305 309 313 305 318 310 318 316 311 296 288 284 279 275 270 266 263 259 255
313 310 311 309 308 305 308 309 309 316 314 298 321 315 321 318 318 312 297 289 284 279 273 267 263 258 254
312 309 313 314 314 314 315 318 311 317 329 311 316 314 319 320 326 320 307 292 286 279 272 267 262 257 254
316 319 325 329 332 327 326 321 315 315 334 315 316 318 319 317 314 324 326 323 313 296 279 267 260 254 252
325 332 337 335 334 332 332 328 323 311 332 319 314 323 307 305 317 327 324 328 322 313 301 285 262 247 247
335 336 334 335 335 335 334 333 330 325 337 338 321 321 316 306 304 329 334 334 327 314 313 307 288 266 238
334 334 336 335 336 337 337 339 336 343 348 347 337 334 324 308 309 326 330 337 335 330 329 315 299 271 236
335 336 337 338 339 341 340 343 341 346 355 355 350 342 335 333 325 332 341 324 344 351 349 340 324 253 229
338 337 339 339 340 344 344 343 344 346 350 356 353 350 351 344 334 349 342 346 356 3 1 6 352 313 223
338 339 338 340 340 345 346 347 345 348 351 351 352 352 359 11 360 357 357 358 2 15 20 25 21 358 222
339 340 340 340 342 344 346 348 348 350 350 351 354 354 345 338 9 23 9 7 9 18 35 41 40 37 92